Regional Weather Roundup
Issued by NWS Mobile, AL

Home | Current Version | Previous Version | Text Only | Print | Product List | Glossary Off
Versions: 1 2 3 4 5 6 7 8 9 10 11 12 13 14 15 16 17 18 19 20 21 22 23 24 25 26 27 28 29 30 31 32 33 34 35 36 37 38 39 40 41 42 43 44 45 46 47 48 49 50

000
ASUS44 KMOB 251613
RWRMOB
REGIONAL WEATHER ROUNDUP
NATIONAL WEATHER SERVICE MOBILE AL
1100 AM CDT MON SEP 25 2017

NOTE: "FAIR" INDICATES FEW OR NO CLOUDS BELOW 12,000 FEET WITH NO
      SIGNIFICANT WEATHER AND/OR OBSTRUCTIONS TO VISIBILITY.

  * THESE STATIONS ARE PART OF THE UNIVERSITY OF SOUTH ALABAMA
    MESONET AND ARE NOT UNDER NWS OR FAA QUALITY CONTROL.

ALZ061>064-251700-
COASTAL ALABAMA

CITY           SKY/WX    TMP DP  RH WIND       PRES   REMARKS
MOBILE REG APT PTSUNNY   79  70  74 E14       29.96F
BROOKLEY FIELD CLOUDY    79  73  82 NE10      29.96F
USA CAMPUS*    NOT AVBL
DOG RIVER*     NOT AVBL


CITY           SKY/WX    TMP DP  RH WIND       PRES   REMARKS
GULF SHORES    CLOUDY    78  73  85 E7        29.95R

$$

ALZ051>060-251700-
INTERIOR SOUTHWEST AND SOUTH CENTRAL ALABAMA

CITY           SKY/WX    TMP DP  RH WIND       PRES   REMARKS
GREENVILLE     MOSUNNY   82  67  60 E3        29.99F
EVERGREEN      CLOUDY    77  72  84 NE5       29.99S
ATMORE*        NOT AVBL
ANDALUSIA/OPP  PTSUNNY   86  70  58 E5        29.97F
ANDALUSIA*     NOT AVBL
FLORALA APT    NOT AVBL
FLORALA*       NOT AVBL

$$

FLZ001>006-251700-
WESTERN FLORIDA PANHANDLE

CITY           SKY/WX    TMP DP  RH WIND       PRES   REMARKS
PENSACOLA      MOSUNNY   81  71  71 E8        29.93F
NAS PENSACOLA  NOT AVBL
MILTON         CLOUDY    79  72  79 E12G17    29.95F
WHTNG S FIELD  MOSUNNY   83  72  69 E14       29.95F


CITY           SKY/WX    TMP DP  RH WIND       PRES   REMARKS
JAY*           NOT AVBL
DUKE FIELD     MOSUNNY   75  70  85 NE7       29.96F
CRESTVIEW      CLOUDY    76  71  85 NE6       29.98F
VALPARAISO     MOSUNNY   74  71  88 NE6       29.95F
DESTIN         CLOUDY    78  70  76 E8        29.95F

$$

MSZ076-079-251700-
INTERIOR SOUTHEAST MISSISSIPPI

CITY           SKY/WX    TMP DP  RH WIND       PRES   REMARKS
LEAKESVILLE*   NOT AVBL
AGRICOLA*      NOT AVBL

$$

MARINE OBSERVATIONS

STATION/POSITION TIME  TEMP    WIND        PRES    WAVE
                       AIR SEA DIR/SP/G            HT/PER
                 (UTC) (F)     (DEG/KT/KT) (MB)    (FT/S)
PASCAGOULA       1548   79      90/ 11/ 16 1013.6S
PETIT BOIS ISLND 1548   78      70/ 12/ 15 1014.3S
GRAND BAY        1445   78      80/ 11     1015.0R
KATRINA CUT      1530   76      80/ 15     1013.5F
CEDAR POINT      1530   77      90/ 10     1014.2S
E DAUPHIN ISLAND 1600   77      70/ 10/ 13 1013.6S
MIDDLE BAY LIGHT 1530   78      60/  9     1014.2R
USCG MOBILE BAY  1548   76 83   60/ 10/ 13 1014.0F
STATE DOCKS      1548   80 82              1014.1F
MEAHER PARK      1530   77      40/  5     1014.6R
WEEKS BAY        1445   77                 1014.0R
FORT MORGAN      1548   77      90/  8/ 13   N/A
12 S ORANGE BCH  1550   78 82   90/ 14/ 16 1013.3R   3/ 5
PENSACOLA BAY    1548   78 81              1014.1F
64 S DAUPHIN ISL 1600   80 82   60/ 12/ 14 1013.1
67 S FORT MORGAN 1530   81      50/  8     1012.9S

$$

SELECTED LOCATIONS ACROSS THE REGION

CITY           SKY/WX    TMP DP  RH WIND       PRES   REMARKS
NEW ORLEANS    MOSUNNY   81  71  71 NE9       29.93S
GULFPORT       MOSUNNY   82  71  69 E13G18    29.93F
PASCAGOULA AP  PTSUNNY   81  69  67 NE8       29.94F
PASCAGOULA*    NOT AVBL
HATTIESBURG    CLOUDY    81  71  71 VRB5      29.98S
LAUREL         SUNNY     80  69  69 E7        29.99S
MERIDIAN       CLOUDY    83  71  67 CALM      29.99F
JACKSON        PTSUNNY   83  68  60 E5        29.99S
MONTGOMERY     MOSUNNY   86  65  49 E6        30.00S
TROY           PTSUNNY   84  69  60 SE8       30.00F
ASHFORD*       NOT AVBL
DOTHAN         PTSUNNY   82  70  66 SE6       30.02S
PANAMA CITY    MOSUNNY   79  72  79 VRB7      29.92F

$$




USA.gov is the U.S. government's official web portal to all federal, state and local government web resources and services.